TimeEST,TemperatureF,Dew PointF,Humidity,Sea Level PressureIn,VisibilityMPH,Wind Direction,Wind SpeedMPH,Gust SpeedMPH,PrecipitationIn,Events,Conditions,WindDirDegrees,DateUTC
12:54 AM,39.0,27.0,62,30.17,10.0,Calm,Calm,-,N/A,,Scattered Clouds,0,2013-01-07 05:54:00
1:54 AM,37.0,28.0,70,30.19,10.0,Calm,Calm,-,N/A,,Overcast,0,2013-01-07 06:54:00
2:54 AM,41.0,30.0,65,30.20,10.0,WNW,3.5,-,N/A,,Overcast,290,2013-01-07 07:54:00
3:54 AM,39.0,30.9,73,30.22,10.0,Calm,Calm,-,N/A,,Overcast,0,2013-01-07 08:54:00
4:54 AM,39.0,28.9,67,30.25,10.0,North,4.6,-,N/A,,Mostly Cloudy,350,2013-01-07 09:54:00
5:54 AM,37.0,28.0,70,30.29,10.0,North,8.1,-,N/A,,Partly Cloudy,10,2013-01-07 10:54:00
6:54 AM,37.0,28.0,70,30.32,10.0,North,4.6,-,N/A,,Partly Cloudy,10,2013-01-07 11:54:00
7:54 AM,37.0,28.0,70,30.36,10.0,Calm,Calm,-,N/A,,Partly Cloudy,0,2013-01-07 12:54:00
8:54 AM,43.0,30.0,60,30.40,10.0,North,6.9,-,N/A,,Clear,360,2013-01-07 13:54:00
9:54 AM,46.0,28.9,51,30.43,10.0,NNE,15.0,21.9,N/A,,Partly Cloudy,20,2013-01-07 14:54:00
10:54 AM,48.0,28.0,46,30.44,10.0,North,13.8,20.7,N/A,,Partly Cloudy,10,2013-01-07 15:54:00
11:54 AM,48.9,27.0,43,30.43,10.0,North,11.5,-,N/A,,Partly Cloudy,350,2013-01-07 16:54:00
12:54 PM,48.9,26.1,41,30.41,10.0,North,10.4,-,N/A,,Partly Cloudy,10,2013-01-07 17:54:00
1:54 PM,48.9,26.1,41,30.42,10.0,ENE,4.6,-,N/A,,Partly Cloudy,60,2013-01-07 18:54:00
2:54 PM,50.0,26.1,39,30.43,10.0,North,6.9,-,N/A,,Partly Cloudy,350,2013-01-07 19:54:00
3:54 PM,48.0,26.1,42,30.43,10.0,ENE,3.5,-,N/A,,Clear,70,2013-01-07 20:54:00
4:54 PM,46.0,25.0,44,30.44,10.0,North,3.5,-,N/A,,Clear,10,2013-01-07 21:54:00
5:54 PM,42.8,26.6,53,30.43,7.0,Calm,Calm,-,N/A,,Clear,0,2013-01-07 22:54:00
6:54 PM,37.9,27.0,65,30.46,10.0,Calm,Calm,-,N/A,,Clear,0,2013-01-07 23:54:00
7:54 PM,35.1,26.1,70,30.47,10.0,Calm,Calm,-,N/A,,Clear,0,2013-01-08 00:54:00
8:54 PM,33.1,26.1,75,30.46,10.0,Calm,Calm,-,N/A,,Clear,0,2013-01-08 01:54:00
9:54 PM,33.1,25.0,72,30.47,10.0,SE,3.5,-,N/A,,Clear,140,2013-01-08 02:54:00
10:54 PM,33.1,26.1,75,30.46,10.0,Calm,Calm,-,N/A,,Clear,0,2013-01-08 03:54:00
11:54 PM,32.0,26.1,79,30.44,10.0,Calm,Calm,-,N/A,,Clear,0,2013-01-08 04:54:00